SCP
-0 -0 -0 0 -0 0 -0 -0 -0 -0 -0 -0 -0 -0 -0 0 0 0 0 0 0 0 0 0 0 -0 0 0 -0 0 0 0 0 0 0 0 0 0 0 0 0 0 0 0 0 0 0 0 0 0 0 0 0 0
-0 -0 -0 -0 0 -0 -0 -0 -0 -0 -0 -0 -0 -0 -0 -0 0 0 0 0 0 0 0 0 0 -0 0 0 -0 -0 0 0 0 0 0 0 0 0 0 0 0 0 0 0 0 0 0 0 0 0 0 0 0 0
-0 -0 -0 -0 -0 -0 0 0 -0 0 0 -0 -0 -0 -0 -0 -0 0 0 0 0 0 0 0 0 0 -0 -0 -0 -0 0 0 0 0 0 0 0 0 0 0 0 0 0 0 0 0 0 0 0 0 0 0 0 0
-0 -0 0 -0 -0 -0 -0 -0 -0 -0 -0 -0 -0 -0 0 0 0 -0 0 0 0 -0 0 0 0 0 0 0 0 -0 0 0 0 0 0 0 0 0 0 0 0 0 0 0 0 0 0 0 0 0 0 0 0 0
-0 -0 -0 -0 -0 0 0 -0 -0 -0 -0 -0 -0 -0 -0 0 0 0 0 0 0 0 0 0 -0 -0 -0 -0 -0 -0 -0 0 0 0 0 0 0 0 0 0 0 0 0 0 0 0 0 0 0 0 0 0 0 0
-0 -0 -0 -0 -0 -0 -0 -0 0 -0 -0 0 0 -0 -0 0 -0 0 0 0 0 0 -0 -0 0 0 0 0 0 0 0 0 0 0 0 0 0 0 0 0 0 0 0 0 0 0 0 0 0 0 0 0 0 0
0 0 -0 -0 -0 0 0 -0 -0 -0 -0 0 -0 0 0 0 0 0 0 0 0 -0 -0 -0 -0 0 0 0 0 0 0 0 0 0 0 0 0 0 0 0 0 0 0 0 0 0 0 0 0 0 0 0 0 0
-0 -0 -0 -0 0 -0 0 -0 -0 -0 -0 -0 0 0 -0 -0 0 0 0 0 0 0 0 0 0 -0 0 0 0 0 0 0 0 0 0 0 0 0 0 0 0 0 0 0 0 0 0 0 0 0 0 0 0 0
-0 -0 -0 -0 -0 0 -0 -0 -0 -0 0 0 0 0 0 0 0 0 0 0 0 0 0 0 0 0 0 0 0 0 0 0 0 0 0 0 0 0 0 0 0 0 0 0 0 0 0 0 0 0 0 0 0 0
-0 -0 -0 -0 -0 0 0 -0 -0 -0 0 0 0 0 0 0 0 0 0 0 0 0 0 0 0 0 0 0 0 0 0 0 0 0 0 0 0 0 0 0 0 0 0 0 0 0 0 0 0 0 0 0 0 0
0 0 0 0 0 0 0 0 -0 0 0 0 0 0 0 0 0 0 0 0 0 0 0 0 0 0 0 0 0 0 0 0 0 0 0 0 0 0 0 0 0 0 0 0 0 0 0 0 0 0 0 0 0 0
0 0 0 0 0 0 0 0 0 0 0 0 0 0 0 0 0 0 0 0 0 0 0 0 0 0 0 0 0 0 0 0 0 0 0 0 0 0 0 0 0 0 0 0 0 0 0 0 0 0 0 0 0 0
0 0 0 0 0 0 0 0 0 0 0 0 0 0 0 0 0 0 0 0 0 0 0 0 0 0 0 0 0 0 0 0 0 0 0 0 0 0 0 0 0 0 0 0 0 0 0 0 0 0 0 0 0 0
0 0 0 0 0 0 0 0 0 0 0 0 0 0 0 0 0 0 0 0 0 0 0 0 0 0 0 0 0 0 0 0 0 0 0 0 0 0 0 0 0 0 0 0 0 0 0 0 0 0 0 0 0 0
0 0 0 0 0 0 0 0 0 0 0 0 0 0 0 0 0 0 0 0 0 0 0 0 0 0 0 0 0 0 0 0 0 0 0 0 0 0 0 0 0 0 0 0 0 0 0 0 0 0 0 0 0 0
0 0 0 0 0 0 0 0 0 0 0 0 0 0 0 0 0 0 0 0 0 0 0 0 0 0 0 0 0 0 0 0 0 0 0 0 0 0 0 0 0 0 0 0 0 0 0 0 0 0 0 0 0 0
0 0 0 0 0 0 0 0 0 0 0 0 0 0 0 0 0 0 0 0 0 0 0 0 0 0 0 0 0 0 0 0 0 0 0 0 0 0 0 0 0 0 0 0 0 0 0 0 0 0 0 0 0 0
0 0 0 0 0 0 0 0 0 0 0 0 0 0 0 0 0 0 0 0 0 0 0 0 0 0 0 0 0 0 0 0 0 0 0 0 0 0 0 0 0 0 0 0 0 0 0 0 0 0 0 0 0 0
0 0 0 0 0 0 0 0 0 0 0 0 0 0 0 0 0 0 0 0 0 0 0 0 0 0 0 0 0 0 0 0 0 0 0 0 0 0 0 0 0 0 0 0 0 0 0 0 0 0 0 0 0 0
0 0 0 0 0 0 0 0 0 0 0 0 0 0 0 0 0 0 0 0 0 0 0 0 0 0 0 0 0 0 0 0 0 0 0 0 0 0 0 0 0 0 0 0 0 0 0 0 0 0 0 0 0 0
0 0 0 0 0 0 0 0 0 0 0 0 0 0 0 0 0 0 0 0 0 0 0 0 0 0 0 0 0 0 0 0 0 0 0 0 0 0 0 0 0 0 0 0 0 0 0 0 0 0 0 0 0 0
0 0 0 0 0 0 0 0 0 0 0 0 0 0 0 0 0 0 0 0 0 0 0 0 0 0 0 0 0 0 0 0 0 0 0 0 0 0 0 0 0 0 0 0 0 0 0 0 0 0 0 0 0 0
0 0 0 0 0 0 0 0 0 0 0 0 0 0 0 0 0 0 0 0 0 0 0 0 0 0 0 0 0 0 0 0 0 0 0 0 0 0 0 0 0 0 0 0 0 0 0 0 0 0 0 0 0 0
0 0 0 0 0 0 0 0 0 0 0 0 0 0 0 0 0 0 0 0 0 0 0 0 0 0 0 0 0 0 0 0 0 0 0 0 0 0 0 0 0 0 0 0 0 0 0 0 0 0 0 0 0 0
0 0 0 0 0 0 0 0 0 0 0 0 0 0 0 0 0 0 0 0 0 0 0 0 0 0 0 0 0 0 0 0 0 0 0 0 0 0 0 0 0 0 0 0 0 0 0 0 0 0 0 0 0 0
0 0 0 0 0 0 0 0 0 0 0 0 0 0 0 0 0 0 0 0 0 0 0 0 0 0 0 0 0 0 0 0 0 0 0 0 0 0 0 0 0 0 0 0 0 0 0 0 0 0 0 0 0 0
0 0 0 0 0 0 0 0 0 0 0 0 0 0 0 0 0 0 0 0 0 0 0 0 0 0 0 0 0 0 0 0 0 0 0 0 0 0 0 0 0 0 0 0 0 0 0 0 0 0 0 0 0 0
0 0 0 0 0 0 0 0 0 0 0 0 0 0 0 0 0 0 0 0 0 0 0 0 0 0 0 0 0 0 0 0 0 0 0 0 0 0 0 0 0 0 0 0 0 0 0 0 0 0 0 0 0 0
0 0 0 0 0 0 0 0 0 0 0 0 0 0 0 0 0 0 0 0 0 0 0 0 0 0 0 0 0 0 0 0 0 0 0 0 0 0 0 0 0 0 0 0 0 0 0 0 0 0 0 0 0 0
0 0 0 0 0 0 0 0 0 0 0 0 0 0 0 0 0 0 0 0 0 0 0 0 0 0 0 0 0 0 0 0 0 0 0 0 0 0 0 0 0 0 0 0 0 0 0 0 0 0 0 0 0 0
0 0 0 0 0 0 0 0 0 0 0 0 0 0 0 0 0 0 0 0 0 0 0 0 0 0 0 0 0 0 0 0 0 0 0 0 0 0 0 0 0 0 0 0 0 0 0 0 0 0 0 0 0 0
0 0 0 0 0 0 0 0 0 0 0 0 0 0 0 0 0 0 0 0 0 0 0 0 0 0 0 0 0 0 0 0 0 0 0 0 0 0 0 0 0 0 0 0 0 0 0 0 0 0 0 0 0 0
0 0 0 0 0 0 0 0 0 0 0 0 0 0 0 0 0 0 0 0 0 0 0 0 0 0 0 0 0 0 0 0 0 0 0 0 0 0 0 0 0 0 0 0 0 0 0 0 0 0 0 0 0 0
Wind_Speed_500mb
22 18 16 15 13 11 13 16 17 12 5 3 3 3 8 23 13 10 8 8 5 8 14 18 8 8 13 13 6 4 6 6 7 7 4 5 6 10 2 5 8 14 12 14 9 14 31 12 14 19 10 25 35 23
25 25 20 17 17 13 13 16 19 25 17 14 10 8 12 18 17 15 11 10 10 10 5 11 11 9 15 18 13 11 3 2 7 5 1 5 4 2 6 7 4 5 13 9 17 14 2 12 20 20 18 19 28 48
21 22 24 23 17 19 20 18 18 23 27 17 14 12 13 17 17 15 14 11 10 7 7 10 13 19 17 17 13 8 9 4 4 4 8 2 4 5 6 10 4 6 8 5 3 9 16 51 50 46 57 66 68 69
25 22 19 20 23 19 19 19 20 17 17 8 15 17 11 12 14 12 11 17 8 3 4 5 10 10 8 13 24 28 13 9 1 2 4 4 4 8 5 8 10 12 11 11 20 30 26 59 60 68 65 64 67 59
29 27 24 21 18 21 22 17 17 16 14 11 12 16 17 19 21 17 14 10 4 4 4 4 8 11 17 13 14 22 28 24 10 4 2 6 7 1 6 3 21 20 20 14 28 24 29 46 58 64 59 48 48 52
27 28 27 27 22 22 20 20 19 18 20 21 20 24 26 22 21 17 4 15 11 14 5 3 2 5 9 6 5 6 6 14 14 12 7 10 9 7 5 7 11 35 57 70 53 75 71 80 69 63 54 47 48 50
26 26 28 29 30 24 22 22 22 22 19 21 22 23 25 27 23 12 6 9 9 14 4 6 7 5 7 4 3 2 4 5 8 5 7 6 8 15 5 11 17 18 26 36 54 63 52 59 44 41 40 42 44 47
28 27 27 27 31 34 32 24 20 22 24 21 19 22 27 27 25 24 32 28 18 9 5 2 7 3 3 4 4 5 5 7 9 6 6 2 6 8 11 31 28 26 28 36 45 49 52 50 47 51 52 50 51 51
28 29 28 28 28 30 32 33 29 25 23 19 16 21 18 13 9 6 11 12 17 10 3 5 7 7 5 5 3 3 4 3 4 2 2 1 4 12 20 17 34 36 20 20 25 29 32 35 36 39 43 43 44 43
28 28 28 27 28 28 29 33 30 26 22 17 13 7 6 5 5 9 3 6 9 9 10 5 8 2 3 5 3 2 4 3 5 5 4 3 9 51 60 56 47 40 38 39 36 34 29 29 30 29 28 31 34 33
29 28 30 31 29 27 26 29 29 25 18 9 4 4 4 6 6 3 4 1 2 6 8 3 10 5 4 5 6 2 1 2 1 6 6 5 8 11 11 10 9 13 17 21 24 27 28 25 22 23 26 27 28 28
31 28 26 30 32 30 31 30 31 27 19 13 18 20 10 3 2 6 3 6 3 8 7 7 6 5 6 6 6 1 6 4 10 1 5 7 10 24 21 16 14 15 19 19 19 19 18 18 19 23 25 24 23 21
33 31 27 24 26 29 26 28 32 34 35 13 4 7 6 3 5 10 7 7 4 13 18 13 3 6 7 6 10 6 5 9 1 4 8 10 14 15 13 17 16 16 14 13 13 14 15 18 19 20 20 20 19 17
36 34 31 27 24 23 24 27 28 29 16 5 5 8 8 6 10 10 9 8 7 8 29 21 12 6 5 6 3 6 5 5 5 3 13 6 15 19 17 21 18 13 12 12 14 14 14 16 18 20 22 23 22 19
40 37 36 29 24 22 19 26 26 23 8 7 6 9 12 10 6 6 11 7 9 28 25 10 9 2 4 6 1 5 8 9 13 10 7 11 13 18 16 20 18 15 15 15 16 16 17 18 18 20 22 23 23 24
41 42 44 28 24 22 21 26 31 12 9 11 14 6 5 3 4 10 19 11 22 32 15 6 6 6 8 7 5 15 11 14 9 8 14 13 21 22 20 22 20 19 20 21 20 21 21 21 22 21 20 21 21 22
34 45 37 26 22 24 25 24 13 10 11 11 12 21 18 9 6 10 16 19 38 27 6 8 8 21 4 4 7 11 12 8 11 8 16 25 24 21 22 26 22 23 23 24 22 23 22 24 24 23 22 24 25 25
52 44 34 28 24 24 26 14 12 11 15 21 9 8 15 15 11 13 21 31 34 22 17 10 11 6 12 13 9 9 33 29 24 23 18 15 17 19 22 25 26 25 25 24 23 24 24 23 24 22 26 27 27 26
52 47 39 30 21 10 8 10 14 11 18 10 14 19 16 14 22 20 22 35 32 20 10 8 4 8 10 11 12 18 17 20 15 13 17 14 18 21 22 26 27 26 25 24 22 21 22 24 24 25 25 27 27 27
48 44 38 36 28 12 11 12 15 14 11 10 12 11 9 8 11 18 26 32 30 12 6 7 13 15 21 20 15 14 14 16 20 25 33 28 26 26 25 24 26 30 29 25 21 20 20 22 20 21 23 27 30 26
50 54 52 48 48 36 14 14 18 12 9 11 11 13 9 8 11 16 20 33 20 16 9 43 59 54 41 38 33 32 33 35 36 37 40 40 31 27 26 24 23 27 28 25 22 20 20 17 19 24 27 28 30 33
73 73 60 54 33 22 24 31 15 14 12 8 13 14 9 7 13 13 25 23 19 28 35 38 52 47 42 41 41 42 37 34 34 35 33 31 28 24 20 18 18 16 15 15 17 16 17 18 21 24 27 27 28 30
68 68 47 34 28 21 11 24 19 19 7 9 15 5 6 8 13 19 11 20 26 35 44 53 51 46 43 42 39 35 35 34 31 28 27 24 21 18 15 14 11 9 9 13 15 15 20 24 26 27 28 27 28 27
71 47 24 24 39 9 17 16 14 15 11 7 8 7 6 11 19 7 9 14 26 28 28 25 27 31 31 29 26 20 15 11 10 6 3 4 6 8 10 12 13 14 14 14 18 23 24 25 26 26 26 25 25 24
25 22 20 16 19 12 12 10 8 5 9 9 8 7 7 16 6 8 8 10 21 26 23 26 29 27 26 20 15 11 14 14 12 10 8 4 3 3 5 6 9 12 15 15 17 19 22 22 22 22 21 21 21 22
18 28 34 24 16 17 17 18 19 17 10 10 11 13 13 7 7 14 7 12 19 18 21 22 23 26 26 25 22 20 16 14 10 7 4 1 3 3 6 9 11 12 12 14 15 18 19 19 17 16 16 17 19 19
22 23 26 27 25 20 9 5 14 8 14 15 11 13 10 12 16 9 12 21 17 19 18 20 23 26 27 27 24 20 19 15 11 7 5 7 7 5 3 6 8 11 12 12 12 10 9 7 8 9 12 15 16 17
18 40 21 22 12 20 12 10 13 19 12 21 25 14 21 21 11 10 14 23 26 23 25 28 27 26 24 22 21 20 17 16 12 8 6 6 5 4 4 4 5 4 4 5 5 7 8 9 10 11 13 14 15 17
9 34 37 12 7 9 14 14 17 21 32 37 15 11 11 16 14 20 23 26 28 28 29 29 27 24 20 16 15 17 18 17 13 12 9 5 2 1 1 3 4 6 7 8 9 11 12 13 14 16 18 19 21 23
15 47 11 12 15 16 15 24 17 35 31 30 20 15 16 14 23 26 28 29 28 27 25 23 22 21 20 18 20 24 23 17 15 13 9 6 4 6 8 9 9 10 11 11 12 12 12 13 15 18 19 20 21 23
46 18 11 7 8 5 16 24 31 31 31 19 15 14 16 15 19 21 21 24 26 26 26 26 27 27 26 27 29 29 21 20 18 14 12 11 11 11 11 11 10 9 9 9 9 10 12 13 15 17 18 19 20 22
6 4 8 9 4 15 23 9 12 9 7 7 5 10 12 10 8 12 10 13 18 20 21 23 26 27 28 32 33 26 23 23 20 17 16 16 15 13 12 10 8 8 8 8 9 10 12 13 14 15 17 19 21 23
8 11 13 11 5 5 9 11 7 6 8 7 7 6 5 7 6 3 1 6 11 16 19 22 22 29 33 32 30 29 28 26 23 21 20 17 15 13 11 10 10 10 10 9 8 8 8 10 11 15 18 22 26 29
Wind_Direction_500mb
8 358 358 356 1 12 7 4 359 341 310 327 56 15 342 346 352 335 300 312 303 241 248 202 195 196 174 184 159 344 137 198 176 202 173 219 149 188 214 275 186 181 181 216 230 240 252 135 146 184 253 289 288 293
15 13 1 341 335 336 318 329 328 342 292 245 238 266 309 319 326 318 296 287 297 247 243 206 198 186 194 193 185 209 257 227 221 91 238 45 33 16 180 255 236 265 190 188 184 220 321 194 245 259 291 288 293 305
20 15 10 8 340 313 312 325 335 338 345 248 244 266 296 312 311 297 285 294 303 211 233 216 208 220 215 225 222 207 204 232 146 100 150 161 209 117 193 240 220 263 180 203 74 249 250 271 274 280 290 292 297 296
4 7 15 9 6 346 313 311 320 329 346 319 261 277 296 317 322 317 306 302 281 174 201 220 212 208 211 225 232 235 232 240 237 338 102 119 140 172 234 239 206 196 147 203 249 268 280 273 277 284 287 291 288 285
3 1 358 1 4 2 355 328 304 302 304 300 295 294 309 321 321 321 303 290 333 299 223 182 254 237 245 232 232 232 235 233 238 292 145 224 216 99 252 336 250 203 231 222 252 257 254 278 280 283 280 276 284 284
359 1 359 356 353 347 348 355 344 312 292 285 286 279 277 289 301 312 296 240 263 333 313 19 336 234 205 190 188 198 226 195 202 191 203 235 216 212 253 249 251 234 243 245 256 267 270 276 280 280 280 280 282 285
351 349 352 354 350 347 339 334 338 337 314 286 277 278 265 266 275 269 253 296 274 306 318 330 294 226 258 208 154 156 172 158 188 235 246 246 218 205 228 252 212 226 250 262 269 268 271 274 271 279 283 289 292 293
351 348 347 347 347 343 340 330 324 327 330 310 285 272 260 261 260 264 259 252 254 261 207 118 278 303 218 155 156 187 155 187 210 240 254 217 278 223 254 245 270 284 286 275 267 264 268 279 282 288 292 296 295 296
345 347 346 346 344 347 349 342 331 326 327 317 285 270 264 269 234 242 221 210 205 229 243 147 159 237 154 113 113 150 202 241 252 190 234 238 251 228 235 257 272 282 267 280 291 289 290 292 298 303 304 305 304 306
326 337 339 340 341 343 348 353 342 332 330 321 290 261 225 215 251 293 252 200 180 202 220 197 173 181 131 126 107 61 180 261 237 258 314 155 256 260 260 262 274 279 282 286 286 288 289 294 303 311 318 319 318 318
308 319 330 334 334 337 342 349 353 345 328 321 275 254 258 293 284 226 229 89 287 347 207 184 196 151 164 119 187 180 164 47 302 262 145 284 274 251 268 279 280 281 277 283 284 287 296 300 307 311 316 315 312 312
294 298 311 325 329 329 333 338 345 348 331 282 272 281 277 223 178 82 249 338 105 229 188 160 151 149 139 156 115 215 153 47 242 295 73 269 252 260 264 275 282 288 286 284 285 287 287 288 298 309 312 312 307 304
287 286 286 300 315 321 326 333 332 333 331 311 203 196 177 191 39 149 233 283 286 185 179 168 161 157 136 158 77 83 112 224 78 53 232 235 258 262 268 253 269 279 278 283 280 271 273 285 295 305 313 315 310 303
278 281 281 281 294 302 313 322 327 329 331 289 231 266 172 234 241 190 184 190 177 170 164 151 121 148 133 81 123 113 241 63 20 326 236 248 271 310 254 243 259 262 270 281 283 273 271 279 291 303 309 311 311 304
274 276 277 274 277 273 295 307 310 315 247 251 209 240 220 238 222 185 201 181 158 151 148 121 83 155 348 85 55 91 14 262 208 231 230 242 312 304 268 249 243 252 273 281 281 276 267 274 281 287 297 298 299 299
265 270 271 273 261 250 284 299 307 288 234 223 226 276 219 22 287 211 207 184 172 163 158 133 116 69 253 147 116 217 144 225 242 218 238 303 316 309 272 253 249 259 273 277 278 278 274 278 283 291 296 297 294 291
245 249 263 259 252 258 288 298 289 222 234 228 236 226 209 243 218 174 173 173 171 164 189 132 147 214 100 57 250 190 211 223 223 242 296 304 301 302 275 254 256 269 279 281 283 283 278 280 288 293 295 291 295 291
233 251 247 247 234 271 287 243 229 241 244 231 231 216 215 219 196 188 189 175 169 191 167 207 135 173 206 190 243 233 234 249 265 286 296 316 310 302 287 266 258 263 273 275 275 280 285 291 293 297 291 294 298 299
245 243 235 228 235 234 243 221 219 251 242 235 235 231 228 234 226 225 203 191 191 181 179 165 152 214 229 214 224 259 251 252 268 279 299 320 321 311 300 280 265 262 265 266 269 271 271 278 284 287 288 292 298 297
230 231 226 216 217 212 233 228 211 241 236 206 221 212 219 211 202 215 205 197 189 195 190 209 223 220 210 231 243 267 267 267 276 288 292 300 304 301 295 284 266 258 261 265 269 275 280 284 295 288 286 290 293 298
211 214 214 215 220 206 239 224 220 236 213 206 195 194 222 217 218 199 194 187 190 219 236 232 237 247 252 260 261 264 268 275 280 280 285 291 293 293 295 293 288 276 272 275 276 278 279 287 278 283 291 296 296 293
205 206 202 205 209 216 234 221 214 188 187 186 189 195 186 188 199 198 173 190 230 232 218 243 255 262 260 262 262 266 271 274 275 275 277 281 288 287 288 288 292 292 276 275 269 271 275 281 290 296 298 297 293 294
195 192 191 194 198 221 227 200 186 193 181 187 160 170 231 203 184 172 234 227 244 244 241 244 252 256 263 267 271 270 268 268 271 268 262 262 268 274 271 270 269 266 260 265 269 273 285 293 297 298 297 298 297 296
189 175 182 200 201 193 172 182 181 162 148 170 173 223 202 164 163 190 254 249 239 239 235 242 242 251 256 263 267 264 267 255 240 226 212 249 255 244 241 245 254 263 271 272 277 287 295 299 303 307 308 305 303 304
154 182 193 207 193 132 175 164 176 172 217 172 180 203 183 161 187 223 237 259 236 240 226 221 224 228 234 236 224 188 152 141 138 145 148 149 187 246 262 266 273 278 284 293 301 304 305 309 313 314 313 313 317 318
186 190 189 198 176 175 179 165 193 183 156 168 199 130 152 161 191 242 223 230 214 197 203 216 220 213 199 176 164 161 161 161 164 165 165 269 272 269 280 287 294 298 302 302 305 306 308 312 318 322 326 336 342 342
183 197 189 186 165 142 138 126 151 146 176 183 163 163 159 194 222 241 217 201 194 196 199 188 179 174 174 174 175 176 179 185 188 197 274 277 268 258 282 305 303 304 308 311 311 317 329 348 0 4 7 7 2 356
185 173 175 168 164 170 144 169 167 186 178 156 139 182 183 196 209 183 189 191 192 186 175 172 170 172 174 183 198 207 207 202 203 253 231 210 241 270 303 314 320 338 358 10 42 74 73 62 53 40 35 28 19 13
160 153 131 144 133 189 202 182 198 206 160 169 171 167 193 196 180 174 175 179 183 180 174 174 174 177 179 187 207 216 211 212 238 218 205 222 233 263 117 101 91 84 76 75 74 65 63 60 51 40 31 19 9 2
173 159 114 144 165 202 197 198 186 172 174 170 161 126 140 144 167 173 176 179 181 183 187 191 198 207 208 210 216 213 211 221 207 203 187 180 168 145 137 128 115 107 98 89 79 69 55 42 30 25 18 10 5 1
150 146 112 130 160 141 151 156 154 160 164 167 158 145 142 146 161 175 188 204 215 220 224 228 229 225 216 212 212 204 205 197 188 180 169 159 148 145 138 132 126 112 98 88 74 62 53 42 35 29 21 14 8 4
97 120 127 119 112 132 134 130 124 110 120 123 108 116 134 133 122 167 188 213 223 224 226 226 222 218 210 203 196 195 192 184 176 168 162 157 152 147 145 144 131 110 101 94 84 73 59 46 32 20 9 2 359 357
87 73 85 106 111 159 155 117 90 87 76 82 63 92 102 121 113 143 342 264 243 224 219 210 196 188 185 182 184 179 176 171 165 163 161 161 160 159 156 143 128 124 122 110 96 76 54 30 9 356 350 348 345 342
Wind_Speed_850mb
22 18 16 15 13 11 13 16 17 12 5 3 3 3 8 23 13 10 8 8 5 8 14 18 8 8 13 13 6 4 6 6 7 7 4 5 6 10 2 5 8 14 12 14 9 14 31 12 14 19 10 25 35 23
25 25 20 17 17 13 13 16 19 25 17 14 10 8 12 18 17 15 11 10 10 10 5 11 11 9 15 18 13 11 3 2 7 5 1 5 4 2 6 7 4 5 13 9 17 14 2 12 20 20 18 19 28 48
21 22 24 23 17 19 20 18 18 23 27 17 14 12 13 17 17 15 14 11 10 7 7 10 13 19 17 17 13 8 9 4 4 4 8 2 4 5 6 10 4 6 8 5 3 9 16 51 50 46 57 66 68 69
25 22 19 20 23 19 19 19 20 17 17 8 15 17 11 12 14 12 11 17 8 3 4 5 10 10 8 13 24 28 13 9 1 2 4 4 4 8 5 8 10 12 11 11 20 30 26 59 60 68 65 64 67 59
29 27 24 21 18 21 22 17 17 16 14 11 12 16 17 19 21 17 14 10 4 4 4 4 8 11 17 13 14 22 28 24 10 4 2 6 7 1 6 3 21 20 20 14 28 24 29 46 58 64 59 48 48 52
27 28 27 27 22 22 20 20 19 18 20 21 20 24 26 22 21 17 4 15 11 14 5 3 2 5 9 6 5 6 6 14 14 12 7 10 9 7 5 7 11 35 57 70 53 75 71 80 69 63 54 47 48 50
26 26 28 29 30 24 22 22 22 22 19 21 22 23 25 27 23 12 6 9 9 14 4 6 7 5 7 4 3 2 4 5 8 5 7 6 8 15 5 11 17 18 26 36 54 63 52 59 44 41 40 42 44 47
28 27 27 27 31 34 32 24 20 22 24 21 19 22 27 27 25 24 32 28 18 9 5 2 7 3 3 4 4 5 5 7 9 6 6 2 6 8 11 31 28 26 28 36 45 49 52 50 47 51 52 50 51 51
28 29 28 28 28 30 32 33 29 25 23 19 16 21 18 13 9 6 11 12 17 10 3 5 7 7 5 5 3 3 4 3 4 2 2 1 4 12 20 17 34 36 20 20 25 29 32 35 36 39 43 43 44 43
28 28 28 27 28 28 29 33 30 26 22 17 13 7 6 5 5 9 3 6 9 9 10 5 8 2 3 5 3 2 4 3 5 5 4 3 9 51 60 56 47 40 38 39 36 34 29 29 30 29 28 31 34 33
29 28 30 31 29 27 26 29 29 25 18 9 4 4 4 6 6 3 4 1 2 6 8 3 10 5 4 5 6 2 1 2 1 6 6 5 8 11 11 10 9 13 17 21 24 27 28 25 22 23 26 27 28 28
31 28 26 30 32 30 31 30 31 27 19 13 18 20 10 3 2 6 3 6 3 8 7 7 6 5 6 6 6 1 6 4 10 1 5 7 10 24 21 16 14 15 19 19 19 19 18 18 19 23 25 24 23 21
33 31 27 24 26 29 26 28 32 34 35 13 4 7 6 3 5 10 7 7 4 13 18 13 3 6 7 6 10 6 5 9 1 4 8 10 14 15 13 17 16 16 14 13 13 14 15 18 19 20 20 20 19 17
36 34 31 27 24 23 24 27 28 29 16 5 5 8 8 6 10 10 9 8 7 8 29 21 12 6 5 6 3 6 5 5 5 3 13 6 15 19 17 21 18 13 12 12 14 14 14 16 18 20 22 23 22 19
40 37 36 29 24 22 19 26 26 23 8 7 6 9 12 10 6 6 11 7 9 28 25 10 9 2 4 6 1 5 8 9 13 10 7 11 13 18 16 20 18 15 15 15 16 16 17 18 18 20 22 23 23 24
41 42 44 28 24 22 21 26 31 12 9 11 14 6 5 3 4 10 19 11 22 32 15 6 6 6 8 7 5 15 11 14 9 8 14 13 21 22 20 22 20 19 20 21 20 21 21 21 22 21 20 21 21 22
34 45 37 26 22 24 25 24 13 10 11 11 12 21 18 9 6 10 16 19 38 27 6 8 8 21 4 4 7 11 12 8 11 8 16 25 24 21 22 26 22 23 23 24 22 23 22 24 24 23 22 24 25 25
52 44 34 28 24 24 26 14 12 11 15 21 9 8 15 15 11 13 21 31 34 22 17 10 11 6 12 13 9 9 33 29 24 23 18 15 17 19 22 25 26 25 25 24 23 24 24 23 24 22 26 27 27 26
52 47 39 30 21 10 8 10 14 11 18 10 14 19 16 14 22 20 22 35 32 20 10 8 4 8 10 11 12 18 17 20 15 13 17 14 18 21 22 26 27 26 25 24 22 21 22 24 24 25 25 27 27 27
48 44 38 36 28 12 11 12 15 14 11 10 12 11 9 8 11 18 26 32 30 12 6 7 13 15 21 20 15 14 14 16 20 25 33 28 26 26 25 24 26 30 29 25 21 20 20 22 20 21 23 27 30 26
50 54 52 48 48 36 14 14 18 12 9 11 11 13 9 8 11 16 20 33 20 16 9 43 59 54 41 38 33 32 33 35 36 37 40 40 31 27 26 24 23 27 28 25 22 20 20 17 19 24 27 28 30 33
73 73 60 54 33 22 24 31 15 14 12 8 13 14 9 7 13 13 25 23 19 28 35 38 52 47 42 41 41 42 37 34 34 35 33 31 28 24 20 18 18 16 15 15 17 16 17 18 21 24 27 27 28 30
68 68 47 34 28 21 11 24 19 19 7 9 15 5 6 8 13 19 11 20 26 35 44 53 51 46 43 42 39 35 35 34 31 28 27 24 21 18 15 14 11 9 9 13 15 15 20 24 26 27 28 27 28 27
71 47 24 24 39 9 17 16 14 15 11 7 8 7 6 11 19 7 9 14 26 28 28 25 27 31 31 29 26 20 15 11 10 6 3 4 6 8 10 12 13 14 14 14 18 23 24 25 26 26 26 25 25 24
25 22 20 16 19 12 12 10 8 5 9 9 8 7 7 16 6 8 8 10 21 26 23 26 29 27 26 20 15 11 14 14 12 10 8 4 3 3 5 6 9 12 15 15 17 19 22 22 22 22 21 21 21 22
18 28 34 24 16 17 17 18 19 17 10 10 11 13 13 7 7 14 7 12 19 18 21 22 23 26 26 25 22 20 16 14 10 7 4 1 3 3 6 9 11 12 12 14 15 18 19 19 17 16 16 17 19 19
22 23 26 27 25 20 9 5 14 8 14 15 11 13 10 12 16 9 12 21 17 19 18 20 23 26 27 27 24 20 19 15 11 7 5 7 7 5 3 6 8 11 12 12 12 10 9 7 8 9 12 15 16 17
18 40 21 22 12 20 12 10 13 19 12 21 25 14 21 21 11 10 14 23 26 23 25 28 27 26 24 22 21 20 17 16 12 8 6 6 5 4 4 4 5 4 4 5 5 7 8 9 10 11 13 14 15 17
9 34 37 12 7 9 14 14 17 21 32 37 15 11 11 16 14 20 23 26 28 28 29 29 27 24 20 16 15 17 18 17 13 12 9 5 2 1 1 3 4 6 7 8 9 11 12 13 14 16 18 19 21 23
15 47 11 12 15 16 15 24 17 35 31 30 20 15 16 14 23 26 28 29 28 27 25 23 22 21 20 18 20 24 23 17 15 13 9 6 4 6 8 9 9 10 11 11 12 12 12 13 15 18 19 20 21 23
46 18 11 7 8 5 16 24 31 31 31 19 15 14 16 15 19 21 21 24 26 26 26 26 27 27 26 27 29 29 21 20 18 14 12 11 11 11 11 11 10 9 9 9 9 10 12 13 15 17 18 19 20 22
6 4 8 9 4 15 23 9 12 9 7 7 5 10 12 10 8 12 10 13 18 20 21 23 26 27 28 32 33 26 23 23 20 17 16 16 15 13 12 10 8 8 8 8 9 10 12 13 14 15 17 19 21 23
8 11 13 11 5 5 9 11 7 6 8 7 7 6 5 7 6 3 1 6 11 16 19 22 22 29 33 32 30 29 28 26 23 21 20 17 15 13 11 10 10 10 10 9 8 8 8 10 11 15 18 22 26 29
Wind_Direction_850mb
8 358 358 356 1 12 7 4 359 341 310 327 56 15 342 346 352 335 300 312 303 241 248 202 195 196 174 184 159 344 137 198 176 202 173 219 149 188 214 275 186 181 181 216 230 240 252 135 146 184 253 289 288 293
15 13 1 341 335 336 318 329 328 342 292 245 238 266 309 319 326 318 296 287 297 247 243 206 198 186 194 193 185 209 257 227 221 91 238 45 33 16 180 255 236 265 190 188 184 220 321 194 245 259 291 288 293 305
20 15 10 8 340 313 312 325 335 338 345 248 244 266 296 312 311 297 285 294 303 211 233 216 208 220 215 225 222 207 204 232 146 100 150 161 209 117 193 240 220 263 180 203 74 249 250 271 274 280 290 292 297 296
4 7 15 9 6 346 313 311 320 329 346 319 261 277 296 317 322 317 306 302 281 174 201 220 212 208 211 225 232 235 232 240 237 338 102 119 140 172 234 239 206 196 147 203 249 268 280 273 277 284 287 291 288 285
3 1 358 1 4 2 355 328 304 302 304 300 295 294 309 321 321 321 303 290 333 299 223 182 254 237 245 232 232 232 235 233 238 292 145 224 216 99 252 336 250 203 231 222 252 257 254 278 280 283 280 276 284 284
359 1 359 356 353 347 348 355 344 312 292 285 286 279 277 289 301 312 296 240 263 333 313 19 336 234 205 190 188 198 226 195 202 191 203 235 216 212 253 249 251 234 243 245 256 267 270 276 280 280 280 280 282 285
351 349 352 354 350 347 339 334 338 337 314 286 277 278 265 266 275 269 253 296 274 306 318 330 294 226 258 208 154 156 172 158 188 235 246 246 218 205 228 252 212 226 250 262 269 268 271 274 271 279 283 289 292 293
351 348 347 347 347 343 340 330 324 327 330 310 285 272 260 261 260 264 259 252 254 261 207 118 278 303 218 155 156 187 155 187 210 240 254 217 278 223 254 245 270 284 286 275 267 264 268 279 282 288 292 296 295 296
345 347 346 346 344 347 349 342 331 326 327 317 285 270 264 269 234 242 221 210 205 229 243 147 159 237 154 113 113 150 202 241 252 190 234 238 251 228 235 257 272 282 267 280 291 289 290 292 298 303 304 305 304 306
326 337 339 340 341 343 348 353 342 332 330 321 290 261 225 215 251 293 252 200 180 202 220 197 173 181 131 126 107 61 180 261 237 258 314 155 256 260 260 262 274 279 282 286 286 288 289 294 303 311 318 319 318 318
308 319 330 334 334 337 342 349 353 345 328 321 275 254 258 293 284 226 229 89 287 347 207 184 196 151 164 119 187 180 164 47 302 262 145 284 274 251 268 279 280 281 277 283 284 287 296 300 307 311 316 315 312 312
294 298 311 325 329 329 333 338 345 348 331 282 272 281 277 223 178 82 249 338 105 229 188 160 151 149 139 156 115 215 153 47 242 295 73 269 252 260 264 275 282 288 286 284 285 287 287 288 298 309 312 312 307 304
287 286 286 300 315 321 326 333 332 333 331 311 203 196 177 191 39 149 233 283 286 185 179 168 161 157 136 158 77 83 112 224 78 53 232 235 258 262 268 253 269 279 278 283 280 271 273 285 295 305 313 315 310 303
278 281 281 281 294 302 313 322 327 329 331 289 231 266 172 234 241 190 184 190 177 170 164 151 121 148 133 81 123 113 241 63 20 326 236 248 271 310 254 243 259 262 270 281 283 273 271 279 291 303 309 311 311 304
274 276 277 274 277 273 295 307 310 315 247 251 209 240 220 238 222 185 201 181 158 151 148 121 83 155 348 85 55 91 14 262 208 231 230 242 312 304 268 249 243 252 273 281 281 276 267 274 281 287 297 298 299 299
265 270 271 273 261 250 284 299 307 288 234 223 226 276 219 22 287 211 207 184 172 163 158 133 116 69 253 147 116 217 144 225 242 218 238 303 316 309 272 253 249 259 273 277 278 278 274 278 283 291 296 297 294 291
245 249 263 259 252 258 288 298 289 222 234 228 236 226 209 243 218 174 173 173 171 164 189 132 147 214 100 57 250 190 211 223 223 242 296 304 301 302 275 254 256 269 279 281 283 283 278 280 288 293 295 291 295 291
233 251 247 247 234 271 287 243 229 241 244 231 231 216 215 219 196 188 189 175 169 191 167 207 135 173 206 190 243 233 234 249 265 286 296 316 310 302 287 266 258 263 273 275 275 280 285 291 293 297 291 294 298 299
245 243 235 228 235 234 243 221 219 251 242 235 235 231 228 234 226 225 203 191 191 181 179 165 152 214 229 214 224 259 251 252 268 279 299 320 321 311 300 280 265 262 265 266 269 271 271 278 284 287 288 292 298 297
230 231 226 216 217 212 233 228 211 241 236 206 221 212 219 211 202 215 205 197 189 195 190 209 223 220 210 231 243 267 267 267 276 288 292 300 304 301 295 284 266 258 261 265 269 275 280 284 295 288 286 290 293 298
211 214 214 215 220 206 239 224 220 236 213 206 195 194 222 217 218 199 194 187 190 219 236 232 237 247 252 260 261 264 268 275 280 280 285 291 293 293 295 293 288 276 272 275 276 278 279 287 278 283 291 296 296 293
205 206 202 205 209 216 234 221 214 188 187 186 189 195 186 188 199 198 173 190 230 232 218 243 255 262 260 262 262 266 271 274 275 275 277 281 288 287 288 288 292 292 276 275 269 271 275 281 290 296 298 297 293 294
195 192 191 194 198 221 227 200 186 193 181 187 160 170 231 203 184 172 234 227 244 244 241 244 252 256 263 267 271 270 268 268 271 268 262 262 268 274 271 270 269 266 260 265 269 273 285 293 297 298 297 298 297 296
189 175 182 200 201 193 172 182 181 162 148 170 173 223 202 164 163 190 254 249 239 239 235 242 242 251 256 263 267 264 267 255 240 226 212 249 255 244 241 245 254 263 271 272 277 287 295 299 303 307 308 305 303 304
154 182 193 207 193 132 175 164 176 172 217 172 180 203 183 161 187 223 237 259 236 240 226 221 224 228 234 236 224 188 152 141 138 145 148 149 187 246 262 266 273 278 284 293 301 304 305 309 313 314 313 313 317 318
186 190 189 198 176 175 179 165 193 183 156 168 199 130 152 161 191 242 223 230 214 197 203 216 220 213 199 176 164 161 161 161 164 165 165 269 272 269 280 287 294 298 302 302 305 306 308 312 318 322 326 336 342 342
183 197 189 186 165 142 138 126 151 146 176 183 163 163 159 194 222 241 217 201 194 196 199 188 179 174 174 174 175 176 179 185 188 197 274 277 268 258 282 305 303 304 308 311 311 317 329 348 0 4 7 7 2 356
185 173 175 168 164 170 144 169 167 186 178 156 139 182 183 196 209 183 189 191 192 186 175 172 170 172 174 183 198 207 207 202 203 253 231 210 241 270 303 314 320 338 358 10 42 74 73 62 53 40 35 28 19 13
160 153 131 144 133 189 202 182 198 206 160 169 171 167 193 196 180 174 175 179 183 180 174 174 174 177 179 187 207 216 211 212 238 218 205 222 233 263 117 101 91 84 76 75 74 65 63 60 51 40 31 19 9 2
173 159 114 144 165 202 197 198 186 172 174 170 161 126 140 144 167 173 176 179 181 183 187 191 198 207 208 210 216 213 211 221 207 203 187 180 168 145 137 128 115 107 98 89 79 69 55 42 30 25 18 10 5 1
150 146 112 130 160 141 151 156 154 160 164 167 158 145 142 146 161 175 188 204 215 220 224 228 229 225 216 212 212 204 205 197 188 180 169 159 148 145 138 132 126 112 98 88 74 62 53 42 35 29 21 14 8 4
97 120 127 119 112 132 134 130 124 110 120 123 108 116 134 133 122 167 188 213 223 224 226 226 222 218 210 203 196 195 192 184 176 168 162 157 152 147 145 144 131 110 101 94 84 73 59 46 32 20 9 2 359 357
87 73 85 106 111 159 155 117 90 87 76 82 63 92 102 121 113 143 342 264 243 224 219 210 196 188 185 182 184 179 176 171 165 163 161 161 160 159 156 143 128 124 122 110 96 76 54 30 9 356 350 348 345 342